Content
SEND FEEDBACK

Daily
Averages
Monthly
Summary
United States of America

GLENS FALLS, NEW YORK


Home > North America > United States > New York
Elevation: 321 feet     Latitude: 43 21N     Longitude: 073 37W

WEATHER
 
SELECT A DAY
Number of Records: 213,181;   Date Range: 1/1/95 - 8/30/14
 
SHARE

PRINT THIS DATA

[ ← Previous Day ]
WEATHER ALMANAC - FEBRUARY 3, 2013
[ Next Day → ]
[ °C ]   °F
Weather ElementAverageHighLow
Temperature15 °F26.1 °F (2:53 pm)3.9 °F (6:53 am)
Dewpoint7.3 °F12.9 °F (10:53 pm) (7:00 pm)
Humidity73.4 %92 % (3:53 am)44 % (2:53 pm)
Barometer29.92 in30.06 in (1:53 am)29.79 in (11:53 pm)
Wind Speed1.3 mph4.6 mph (7:53 am)
Weather ElementAverage
Visibility9.1 mi
Wind DirectionNNE (26.8 °)

Weather ElementTotal
Precipitation---
Heating Degree Days50 (Base 65)
Averaged from 25 records on February 3, 2013
WEATHER CONDITIONS BREAKOUT
WIND DIRECTION BREAKOUT
WEATHER BY HOUR - FEBRUARY 3, 2013
[ °C ]   °F
Local TimeTemperatureDewpointHumidityBarometerVisibilityWind DirectionWind SpeedGust SpeedPrecipitationEventsConditions
1:53 AM10.0 °F7.0 °F87 %30.06 in10.0 miCalmScattered Clouds
2:53 AM8.1 °F5.0 °F87 %30.05 in10.0 miCalmClear
3:53 AM5.0 °F3.0 °F92 %30.04 in10.0 miCalmClear
4:53 AM6.1 °F3.0 °F87 %30.02 in10.0 miCalmClear
5:53 AM5.0 °F1.9 °F87 %30.01 in4.0 miCalmClear
6:53 AM3.9 °F0.0 °F84 %30.01 in10.0 miCalmClear
7:07 AM6.8 °F1.4 °F79 %29.96 in1.5 miNorth (10°)3.5 mphHaze
7:18 AM5.0 °F1.4 °F85 %29.96 in3.0 miNNW (330°)3.5 mphClear
7:53 AM10.0 °F6.1 °F84 %30.01 in10.0 miNorth (10°)4.6 mphClear
8:53 AM14.0 °F9.0 °F80 %30.00 in10.0 miNorth (10°)3.5 mphClear
9:53 AM18.0 °F10.9 °F74 %29.99 in10.0 miCalmClear
10:53 AM19.9 °F10.9 °F68 %29.97 in10.0 miENE (60°)3.5 mphClear
11:53 AM21.9 °F10.0 °F60 %29.93 in10.0 miCalmClear
12:53 PM25.0 °F7.0 °F46 %29.89 in10.0 miVariable4.6 mphClear
1:53 PM25.0 °F8.1 °F49 %29.86 in10.0 miSouth (180°)4.6 mphClear
2:53 PM26.1 °F7.0 °F44 %29.85 in10.0 miCalmClear
3:53 PM25.0 °F7.0 °F46 %29.83 in10.0 miCalmMostly Cloudy
4:53 PM25.0 °F8.1 °F49 %29.82 in10.0 miENE (70°)3.5 mphClear
5:53 PM19.0 °F10.0 °F68 %29.83 in10.0 miCalmClear
6:53 PM15.1 °F9.0 °F77 %29.82 in10.0 miCalmClear
7:53 PM15.1 °F9.0 °F77 %29.81 in10.0 miCalmPartly Cloudy
8:53 PM15.1 °F10.0 °F80 %29.82 in10.0 miCalmPartly Cloudy
9:53 PM16.0 °F10.9 °F81 %29.81 in10.0 miCalmOvercast
10:53 PM17.1 °F12.9 °F84 %29.80 in10.0 miCalmOvercast
11:53 PM18.0 °F12.9 °F81 %29.79 in10.0 miCalmOvercast
Hourly data recorded from KGFL, located miles away from Glens Falls, New York







STORIES FROM OUR PARTNERS